Preview of NWS' New Version of Forecast
This preview is not operational and should not be used for support decisions.

Regional Weather Roundup (RWR)

Issued by National Weather Service (NWS)

                            
000
ASUS43 KMKX 251711
RWRWI 

WISCONSIN REGIONAL WEATHER ROUNDUP
NATIONAL WEATHER SERVICE MILWAUKEE/SULLIVAN WI
1200 PM CDT SUN AUG 25 2019

NOTE: "FAIR" INDICATES FEW OR NO CLOUDS BELOW 12,000 FEET WITH NO
SIGNIFICANT WEATHER AND/OR OBSTRUCTIONS TO VISIBILITY.

WIZ001-002-006>008-014>016-023>028-251800-
NORTHWEST WISCONSIN
  
CITY           SKY/WX    TMP DP  RH WIND       PRES   REMARKS
SUPERIOR ARPT  PTSUNNY   71  54  55 S8        30.04F                  
ASHLAND        FAIR      72  51  47 S10G18    30.09F                  
HAYWARD        PTSUNNY   69  54  58 S12G20    30.09F                  
SIREN          FAIR      70  54  56 S10G20    30.06F                  
CUMBERLAND     PTSUNNY   68  52  56 SE12G20   30.08F                  
RICE LAKE      NOT AVBL                                               
CHETEK         PTSUNNY   68  55  63 SE17      30.09F                  
LADYSMITH      FAIR      69  55  60 S12       30.12F                  
EAU CLAIRE     PTSUNNY   70  53  54 S13G25    30.08F                  
MENOMONIE      FAIR      66  50  55 SE14      30.08F                  
NEW RICHMOND   FAIR      70  53  55 S14       30.05F                  
OSCEOLA        FAIR      71  56  59 SE15G22   30.07F                  
$$
 
WIZ003>005-009-010-017-018-251800-
NORTH CENTRAL WISCONSIN
  
CITY           SKY/WX    TMP DP  RH WIND       PRES   REMARKS
MANITOWISH WTR PTSUNNY   68  53  59 SE14G20   30.14F                  
ARBOR VITAE    PTSUNNY   72  56  58 S14       30.14F                  
WOODRUFF       PTSUNNY   72  56  58 S14       30.14F                  
RHINELANDER    CLOUDY    67  53  61 S9        30.16F                  
EAGLE RIVER    PTSUNNY   68  51  53 S9        30.15F                  
LAND O LAKES   FAIR      70  52  53 S12G18    30.17F                  
PHILLIPS       PTSUNNY   67  53  60 S14G21    30.12F                  
TOMAHAWK       PTSUNNY   69  56  63 SE6       30.14F                  
MEDFORD        CLOUDY    65  54  67 S10       30.13F                  
MERRILL        CLOUDY    68  55  62 SE10      30.15F                  
$$
 
WIZ029-030-035-036-043>047-251800-
CENTRAL WISCONSIN
  
CITY           SKY/WX    TMP DP  RH WIND       PRES   REMARKS
WAUSAU         PTSUNNY   69  54  58 S14G22    30.13F                  
MOSINEE        PTSUNNY   66  57  72 S10       30.16S                  
MARSHFIELD     CLOUDY    68  53  58 SE14      30.13F                  
STEVENS POINT  PTSUNNY   69  53  57 SE12G18   30.14F                  
WAUPACA        FAIR      76  53  45 SE13G18   30.15F                  
WAUTOMA        CLOUDY    71  55  56 SE13      30.13F                  
WISC RAPIDS    PTSUNNY   70  53  54 SE15G22   30.13F                  
CAMP DOUGLAS   PTSUNNY   70  57  64 SE12G18   30.11                   
$$
 
WIZ011>013-019>022-031-037>040-048>050-251800-
NORTHEAST WISCONSIN
  
CITY           SKY/WX    TMP DP  RH WIND       PRES   REMARKS
ANTIGO         PTSUNNY   68  56  64 S12G18    30.17S                  
SHAWANO        PTSUNNY   72  56  57 SE9       30.15F                  
OCONTO         FAIR      72  57  60 SE12      30.16F                  
STURGEON BAY   FAIR      69  55  60 SE13      30.18F                  
GREEN BAY      FAIR      74  57  55 SE16G22   30.15F                  
MANITOWOC      FAIR      68  59  73 SE16      30.17F                  
APPLETON       PTSUNNY   72  55  56 SE14      30.15F                  
CLINTONVILLE   PTSUNNY   72  55  54 SE13      30.14F                  
OSHKOSH        FAIR      72  56  57 SE12      30.13F                  
$$
 
WIZ032>034-041-042-053>061-251800-
SOUTHWEST WISCONSIN
  
CITY           SKY/WX    TMP DP  RH WIND       PRES   REMARKS
LA CROSSE      FAIR      74  55  51 SE12G17   30.08F                  
SPARTA         PTSUNNY   69  55  61 SE8G20    30.10F                  
VIROQUA        PTSUNNY   67  60  76 SE9G16    30.10F                  
BOSCOBEL       PTSUNNY   74  57  55 SE7       30.08F                  
PRAIRIE DU CHI LGT RAIN  68  57  68 SE5       30.07F                  
PLATTEVILLE    FAIR      71  62  74 E8        30.09F                  
$$

WIZ056-057-062-063-064-067-068-251800-
SOUTH CENTRAL WISCONSIN
  
CITY           SKY/WX    TMP DP  RH WIND       PRES   REMARKS
REEDSBURG      FAIR      71  56  59 SE7       30.11F                  
BARABOO/DELLS  FAIR      70  55  59 E9        30.12F                  
LONE ROCK      FAIR      73  57  57 E13G21    30.09F                  
MINERAL POINT  FAIR      72  61  68 SE10      30.10S                  
MADISON        PTSUNNY   73  57  57 SE15      30.10F                  
MIDDLETON      FAIR      73  55  53 E8        30.11F                  
WATERTOWN      PTSUNNY   71  58  64 SE12      30.11F                  
MONROE         FAIR      71  56  59 E8        30.10F                  
JANESVILLE     PTSUNNY   73  57  56 SE12      30.11F                  
$$
 
WIZ051-052-058>065-066-070>072-251800-
SOUTHEAST WISCONSIN
  
CITY           SKY/WX    TMP DP  RH WIND       PRES   REMARKS
MILWAUKEE      PTSUNNY   72  59  63 SE15      30.15S                  
WAUKESHA       PTSUNNY   70  57  64 E12       30.15F                  
MILWAUKEE/TIMM PTSUNNY   70  55  60 E7        30.16F                  
RACINE         FAIR      73  59  61 SE16      30.16S                  
KENOSHA        FAIR      74  61  63 SE13G20   30.14F                  
FOND DU LAC    FAIR      75  55  49 SE10G20   30.14F                  
SHEBOYGAN      FAIR      70  57  63 SE10      30.16F                  
WEST BEND      FAIR      72  57  60 E9        30.15F                  
JUNEAU         FAIR      72  57  59 E10       30.13F                  
$$

LSZ147-162-251800-
LAKE SUPERIOR
  
STATION/POSITION TIME  TEMP    WIND        PRES    WAVE
                       AIR SEA DIR/SP/G            HT/PER
                 (UTC) (F)     (DEG/KT/KT) (MB)    (FT/S)
W MID LAKE BUOY  1650   64 64  160/ 12/ 14 1019.3F   3/ 5
DEVILS ISLAND    1600   66     190/  9/ 13 1019.4F
SAXON HARBOR     1630   71     190/  4/ 15 1018.6F
$$
 
LMZ867-665-643>646-251800-
LAKE MICHIGAN
  
STATION/POSITION TIME  TEMP    WIND        PRES    WAVE
                       AIR SEA DIR/SP/G            HT/PER
                 (UTC) (F)     (DEG/KT/KT) (MB)    (FT/S)
S GREEN BAY BUOY 1630   75 70  140/ 10/ 14 1021.6F
N MID LAKE BUOY  1650   67 70  160/  8/ 10 1023.3F   2/ 5
NORTHPORT PIER   1640   67     120/  6/  9 1022.4S
KEWAUNEE LAKESHO 1630   68     150/ 10/ 13 1021.4F
SHEBOYGAN LAKESH 1700   67     140/ 14/ 16 1021.3F
PORT WASHINGTON  1640   70     140/ 11/ 13 1022.0F
ATWATER BUOY     1630   67 68  130/ 12/ 16 1021.2F   3/ 5
S MID LAKE BUOY  1650   68 72  120/ 12/ 14 1021.2F   3/ 4
KENOSHA   LAKESH 1700   71     140/ 12/ 14 1020.3
$$

TC  - TEMPERATURE IN CELSIUS
VSB - VISIBILITY IN STATUTE MILES
WCI - WIND CHILL INDEX
HX  - HEAT INDEX